Regional Weather Roundup
Issued by NWS

Home | Current Version | Previous Version | Text Only | Print | Product List | Glossary On
Versions: 1 2 3 4 5 6 7 8 9 10 11 12 13 14 15 16 17 18 19 20 21 22 23 24 25 26 27 28 29 30 31 32 33 34 35 36 37 38 39 40 41 42 43 44 45 46 47 48 49 50
000
ASUS43 KDTX 181001
RWRMI
MICHIGAN HOURLY REGIONAL WEATHER ROUNDUP
NATIONAL WEATHER SERVICE DETROIT/PONTIAC MI
500 AM EST THU JAN 18 2018

NOTE: "FAIR" INDICATES FEW OR NO CLOUDS BELOW 12,000 FEET WITH NO
SIGNIFICANT WEATHER AND/OR OBSTRUCTION TO VISIBILITY.

MIZ047>049-052>055-059>063-066>070-074>076-081>083-181100-
SOUTHEAST LOWER MICHIGAN

CITY           SKY/WX    TMP DP  RH WIND       PRES   REMARKS
ADRIAN         FAIR      12   6  77 W8        30.12F WCI   0
ALMA           FAIR      24  18  78 SW12G21   30.00F WCI  12
ANN ARBOR      FAIR      14   7  73 SW12      30.08F WCI   0
BAD AXE        FAIR      18  14  83 SW9       29.97F WCI   7
CARO           FAIR      18  14  83 SW14      29.98F WCI   4
DETROIT CITY   FAIR      14   7  73 SW10      30.09F WCI   1
DETROIT        MOCLDY    13   7  77 SW13      30.11F WCI  -2
FLINT          CLOUDY    17  11  77 SW13      30.03F WCI   4
GROSSE ILE     FAIR      15   8  76 SW9G17    30.11F WCI   3
HILLSDALE      FAIR      14   9  79 W13G21    30.07F WCI   0
HOWELL         CLOUDY    17  12  82 SW13G18   30.04F WCI   3

CITY           SKY/WX    TMP DP  RH WIND       PRES   REMARKS
JACKSON        FAIR      15   8  73 SW18G25   30.06F WCI  -2
LAMBERTVILLE   FAIR      14   8  75 SW13G23   30.13F WCI   0
LANSING        FAIR      16  11  80 SW12      30.04F WCI   3
LAPEER         CLOUDY    19  13  79 W13       30.01F WCI   5
MASON          FAIR      18   9  69 SW13G20   30.05F WCI   4
MONROE         FAIR      14   6  71 W15G21    30.12S WCI  -1
MT. CLEMENS    FAIR     N/A N/A N/A SW9         N/A
PONTIAC        CLOUDY    15   9  76 SW9       30.02F WCI   3
PORT HOPE        N/A     19  13  77 SW10G18   29.93F WCI   7
PORT HURON     CLOUDY    18   7  62 SW6       30.05F WCI   9
TRI CITIES     FAIR      19  15  84 S9        29.99F WCI   8
MIDLAND        FAIR      24  17  74 SW10      29.97F WCI  13
TROY           FAIR      17   9  71 S7        30.09S WCI   7
SAGINAW HB     FAIR      19  14  79 SW15      30.00F WCI   5
$$
MIZ043>046-050>051-056>058-064>065-071>073-077>080-181100-
SOUTHWEST LOWER MICHIGAN

CITY           SKY/WX    TMP DP  RH WIND       PRES   REMARKS
BATTLE CREEK   FAIR      16   9  74 SW16G24   30.07F WCI   1
BENTON HARBOR  FAIR      23  15  71 W22G31    30.14F WCI   8
BIG RAPIDS     FAIR      22  15  73 W12       29.95F WCI  11
COLDWATER      FAIR      14   8  78 SW13      30.10F WCI   0
FREMONT        FAIR      24  13  63 W9G16     30.00F WCI  14
HOLLAND        FAIR      26  17  68 W24G33    30.07F WCI  11
GRAND RAPIDS   FAIR      24  16  71 W23       30.03F WCI   9
IONIA          MOCLDY    23  17  80 SW17G23   30.01F WCI   9
KALAMAZOO      FAIR      16   9  74 SW16      30.09F WCI   1
LUDINGTON      FAIR      27  19  74 W15G22    29.99F WCI  15
MARSHALL       FAIR      15   8  73 SW13      30.07F WCI   1
MOUNT PLEASANT FAIR      24  17  73 SW13G18   29.96F WCI  12
MUSKEGON       FAIR      26  17  68 SW18G26   30.04F WCI  13
SOUTH HAVEN    FAIR      25  17  72 W24G30    30.11F WCI  10
$$
MIZ016>042-181100-
NORTHERN LOWER MICHIGAN

CITY           SKY/WX    TMP DP  RH WIND       PRES   REMARKS
ALPENA         FAIR      21  15  78 SW9       29.88F WCI  11
BEAVER ISLAND  FAIR      27  18  67 W14G23    29.86S WCI  16
BELLAIRE       FAIR      26  21  80 SW7       29.91F WCI  18
CADILLAC       FAIR      20  15  81 W10       29.89F WCI   9
CHARLEVOIX     CLOUDY    28  21  74 W16G22    29.91S WCI  17
FRANKFORT      FAIR      28  20  70 W10       29.94F WCI  19
GAYLORD        FAIR      20  16  84 W14       29.85R WCI   7
GRAYLING       FAIR      21  14  74 W9        29.88F WCI  11
HARBOR SPRINGS CLOUDY    29  21  73 W13G23    29.86S WCI  19
HOUGHTON LAKE  FAIR      20  14  77 W10       29.90F WCI   9
MANISTEE       FAIR      26  19  74 W13       29.95F WCI  15
OSCODA         FAIR      17  11  78 SW9       29.92F WCI   5
PELLSTON       FAIR      27  18  69 VRB7      29.86S WCI  19
ROGERS CITY    FAIR      21  16  79 SW9       29.87S WCI  11
TRAVERSE CITY  FAIR      25  17  72 SW7       29.91F WCI  17
$$
MIZ007>008-015-181100-
EASTERN UPPER MICHIGAN

CITY           SKY/WX    TMP DP  RH WIND       PRES   REMARKS
KINROSS        CLOUDY    23  14  68 W9        29.82S WCI  13
MACKINAC ISLAN FAIR      26  18  74 W9G16     29.84S WCI  16
NEWBERRY       FAIR      17  10  76 SW9       29.82S WCI   5
S. S. MARIE    CLOUDY    25  14  63 W8        29.81S WCI  16
MUNISING         N/A     13   9  84 S7        29.83F WCI   3
$$
MIZ004>006-011>014-085-181100-
CENTRAL UPPER MICHIGAN

CITY           SKY/WX    TMP DP  RH WIND       PRES   REMARKS
MANISTIQUE     FAIR      19  11  73 W5        29.84F WCI  12
ESCANABA       FAIR       9   6  88 W3        29.88
MENOMINEE      FAIR      18  12  77 SW8       29.91F WCI   8
$$
MIZ001>003-009>011-084-181100-
WESTERN UPPER MICHIGAN

CITY           SKY/WX    TMP DP  RH WIND       PRES   REMARKS
IRON MOUNTAIN  FAIR      20  14  77 CALM      29.82F
HOUGHTON       FAIR      26  19  74 W13       29.75F WCI  15
COPPER HARBOR    N/A     31  23  72 NW7       29.76F WCI  24
IRONWOOD       FAIR      23  18  81 SW9       29.80F WCI  13
$$

ABBREVIATIONS USED IN REMARKS
   TC - TEMPERATURE IN CELSIUS
  WCI - WIND CHILL INDEX
   HX - HEAT INDEX
  VSB - VISIBILITY





USA.gov is the U.S. government's official web portal to all federal, state and local government web resources and services.